Weather History for Hulett, WY

Change the Weather History Date:

Monday, December 2, 2013

  Actual Average (KEFC) Record (KEFC)
Temperature  
Mean Temperature 38 °F -  
Max Temperature 44 °F 39 °F 67 °F (1959)
Min Temperature 32 °F 16 °F -23 °F (1980)
Degree Days  
Heating Degree Days 27    
Moisture  
Dew Point 32 °F    
Average Humidity 80    
Maximum Humidity 100    
Minimum Humidity 61    
Precipitation  
Precipitation 0.00 in - - ()
Sea Level Pressure  
Sea Level Pressure 29.56 in    
Wind  
Wind Speed 7 mph (NNE)    
Max Wind Speed 14 mph    
Max Gust Speed 20 mph    
Visibility 9 miles    
Events Rain , Snow    
Averages and records for this station are not official NWS values.
T = Trace of Precipitation, MM = Missing Value Source: NWS Daily Summary

Daily Weather History Graph

Daily Weather History Graph

Search for Another Location

Airport:

Trip Planner

Search our weather history database for the weather conditions in past years. The results will help you decide how hot, cold, wet, or windy it might be!

Date:

Astronomy

Dec. 02, 2013 Rise Set
Actual Time 7:16 AM MST 4:18 PM MST
Civil Twilight 6:43 AM MST 4:51 PM MST
Nautical Twilight 6:07 AM MST 5:28 PM MST
Astronomical Twilight 5:31 AM MST 6:03 PM MST
Moon 6:42 AM MST (12/2) 4:25 PM MST (12/2)
Length of Visible Light 10h 08m
Length of Day
9h 02m
Waning Crescent, 0% of the Moon is Illuminated
Dec 2
Waning Crescent
Dec 2
New
Dec 9
First Quarter
Dec 17
Full
Dec 25
Last Quarter

Hourly Weather History & Observations

Time (MST) Temp. Windchill Dew Point Humidity Pressure Visibility Wind Dir Wind Speed Gust Speed Precip Events Conditions
12:15 AM 41.0 °F 34.7 °F 28.4 °F 61% 29.67 in 10.0 mi SSW 10.4 mph - N/A   Scattered Clouds
12:35 AM 41.0 °F 34.7 °F 28.4 °F 61% 29.66 in 10.0 mi SW 10.4 mph - N/A   Clear
12:55 AM 41.0 °F 35.2 °F 28.4 °F 61% 29.65 in 10.0 mi SSW 9.2 mph - N/A   Scattered Clouds
1:15 AM 37.4 °F 30.3 °F 28.4 °F 70% 29.65 in 10.0 mi SSW 10.4 mph - N/A   Clear
1:35 AM 39.2 °F 32.0 °F 28.4 °F 65% 29.66 in 10.0 mi SW 11.5 mph - N/A   Clear
1:55 AM 39.2 °F 32.5 °F 28.4 °F 65% 29.65 in 10.0 mi SSW 10.4 mph - N/A   Clear
2:15 AM 41.0 °F 34.7 °F 28.4 °F 61% 29.64 in 10.0 mi SW 10.4 mph - N/A   Clear
2:35 AM 41.0 °F 34.3 °F 28.4 °F 61% 29.62 in 10.0 mi SW 11.5 mph - N/A   Clear
2:55 AM 41.0 °F 34.7 °F 28.4 °F 61% 29.62 in 10.0 mi SW 10.4 mph - N/A   Clear
3:15 AM 41.0 °F 35.2 °F 28.4 °F 61% 29.62 in 10.0 mi SW 9.2 mph - N/A   Clear
3:35 AM 39.2 °F 32.5 °F 28.4 °F 65% 29.61 in 10.0 mi SW 10.4 mph - N/A   Clear
3:55 AM 41.0 °F 33.9 °F 28.4 °F 61% 29.60 in 10.0 mi SSW 12.7 mph - N/A   Clear
4:15 AM 41.0 °F 34.3 °F 28.4 °F 61% 29.59 in 10.0 mi SW 11.5 mph - N/A   Mostly Cloudy
4:35 AM 41.0 °F 35.2 °F 28.4 °F 61% 29.58 in 10.0 mi SSW 9.2 mph - N/A   Overcast
4:55 AM 41.0 °F 34.7 °F 28.4 °F 61% 29.59 in 10.0 mi SW 10.4 mph - N/A   Overcast
5:15 AM 41.0 °F 33.9 °F 28.4 °F 61% 29.60 in 10.0 mi SW 12.7 mph 19.6 mph N/A   Overcast
5:35 AM 37.4 °F 32.8 °F 28.4 °F 70% 29.61 in 10.0 mi West 5.8 mph - N/A Rain Light Rain
5:55 AM 35.6 °F - 28.4 °F 75% 29.62 in 10.0 mi Calm Calm - N/A   Overcast
6:15 AM 39.2 °F 35.9 °F 30.2 °F 70% 29.61 in 10.0 mi SSW 4.6 mph - N/A   Overcast
6:35 AM 37.4 °F 34.9 °F 30.2 °F 75% 29.62 in 10.0 mi North 3.5 mph - N/A   Overcast
6:55 AM 37.4 °F 34.9 °F 30.2 °F 75% 29.60 in 10.0 mi NE 3.5 mph - N/A Rain Light Rain
7:15 AM 35.6 °F 31.7 °F 32.0 °F 87% 29.60 in 10.0 mi NE 4.6 mph - N/A   Overcast
7:35 AM 35.6 °F 32.8 °F 32.0 °F 87% 29.61 in 10.0 mi North 3.5 mph - N/A   Light Drizzle
7:55 AM 35.6 °F - 32.0 °F 87% 29.61 in 5.0 mi Calm Calm - N/A Rain Light Rain
8:15 AM 35.6 °F - 33.8 °F 93% 29.61 in 7.0 mi Calm Calm - N/A   Overcast
8:35 AM 35.6 °F 32.8 °F 33.8 °F 93% 29.59 in 10.0 mi ENE 3.5 mph - N/A   Overcast
8:55 AM 35.6 °F - 33.8 °F 93% 29.59 in 10.0 mi Calm Calm - N/A   Overcast
9:15 AM 35.6 °F - 33.8 °F 93% 29.59 in 10.0 mi Calm Calm - N/A   Overcast
9:35 AM 35.6 °F 30.7 °F 33.8 °F 93% 29.58 in 10.0 mi ESE 5.8 mph - N/A   Overcast
9:55 AM 37.4 °F - 33.8 °F 87% 29.59 in 10.0 mi Calm Calm - N/A   Overcast
10:15 AM 37.4 °F - 33.8 °F 87% 29.59 in 10.0 mi Calm Calm - N/A Rain Light Rain
10:35 AM 37.4 °F 33.8 °F 33.8 °F 87% 29.60 in 10.0 mi NNW 4.6 mph - N/A   Overcast
10:55 AM 35.6 °F 30.7 °F 33.8 °F 93% 29.59 in 10.0 mi NNE 5.8 mph - N/A   Overcast
11:16 AM 37.4 °F - 33.8 °F 87% 29.58 in 10.0 mi Calm Calm - N/A   Overcast
11:35 AM 37.4 °F - 33.8 °F 87% 29.57 in 10.0 mi Calm Calm - N/A   Overcast
11:55 AM 39.2 °F 35.9 °F 35.6 °F 87% 29.56 in 10.0 mi SW 4.6 mph - N/A   Overcast
12:15 PM 41.0 °F - 33.8 °F 76% 29.55 in 10.0 mi Calm Calm - N/A   Overcast
12:35 PM 41.0 °F - 33.8 °F 76% 29.54 in 10.0 mi Calm Calm - N/A   Mostly Cloudy
12:55 PM 41.0 °F 37.1 °F 33.8 °F 76% 29.53 in 10.0 mi WSW 5.8 mph - N/A   Mostly Cloudy
1:15 PM 42.8 °F - 33.8 °F 70% 29.53 in 10.0 mi Calm Calm - N/A Rain Light Rain
1:35 PM 42.8 °F 41.1 °F 33.8 °F 70% 29.52 in 10.0 mi South 3.5 mph - N/A   Mostly Cloudy
1:55 PM 41.0 °F - 33.8 °F 76% 29.51 in 10.0 mi Calm Calm - N/A   Scattered Clouds
2:15 PM 42.8 °F - 33.8 °F 70% 29.51 in 10.0 mi Calm Calm - N/A   Mostly Cloudy
2:35 PM 44.6 °F 43.1 °F 33.8 °F 66% 29.51 in 10.0 mi NNW 3.5 mph - N/A   Overcast
2:55 PM 42.8 °F 40.1 °F 33.8 °F 70% 29.53 in 10.0 mi NW 4.6 mph - N/A   Overcast
3:15 PM 42.8 °F 40.1 °F 33.8 °F 70% 29.53 in 10.0 mi NNE 4.6 mph - N/A   Overcast
3:35 PM 41.0 °F 38.0 °F 35.6 °F 81% 29.53 in 10.0 mi North 4.6 mph - N/A   Overcast
3:55 PM 41.0 °F 39.0 °F 33.8 °F 76% 29.52 in 10.0 mi ENE 3.5 mph - N/A   Overcast
4:15 PM 39.2 °F - 33.8 °F 81% 29.51 in 10.0 mi North - - N/A   Mostly Cloudy
4:35 PM 37.4 °F - 33.8 °F 87% 29.51 in 10.0 mi North - - N/A   Mostly Cloudy
4:55 PM 37.4 °F - 33.8 °F 87% 29.51 in 10.0 mi Calm Calm - N/A   Mostly Cloudy
5:15 PM 37.4 °F - 33.8 °F 87% 29.51 in 10.0 mi Calm Calm - N/A Rain Rain
5:35 PM 37.4 °F 32.1 °F 33.8 °F 87% 29.51 in 10.0 mi North 6.9 mph - N/A   Overcast
5:55 PM 37.4 °F 30.8 °F 33.8 °F 87% 29.51 in 10.0 mi NNE 9.2 mph - N/A Rain Light Rain
6:15 PM 37.4 °F 32.1 °F 33.8 °F 87% 29.51 in 10.0 mi ENE 6.9 mph - N/A Rain Light Rain
6:35 PM 35.6 °F 28.0 °F 33.8 °F 93% 29.48 in 5.0 mi ENE 10.4 mph - N/A Rain Rain
6:55 PM 35.6 °F 29.9 °F 33.8 °F 93% 29.49 in 10.0 mi ENE 6.9 mph - N/A   Overcast
7:15 PM 35.6 °F 28.6 °F 33.8 °F 93% 29.55 in 10.0 mi NW 9.2 mph 16.1 mph N/A   Overcast
7:35 PM 33.8 °F 26.4 °F 32.0 °F 93% 29.51 in 1.2 mi ENE 9.2 mph - N/A Snow Snow
7:55 PM 33.8 °F 27.7 °F 32.0 °F 93% 29.51 in 10.0 mi NE 6.9 mph - N/A   Overcast
8:15 PM 33.8 °F 28.6 °F 32.0 °F 93% 29.51 in 7.0 mi NNE 5.8 mph - N/A Snow Light Snow
8:35 PM 33.8 °F 26.4 °F 32.0 °F 93% 29.50 in 10.0 mi ENE 9.2 mph - N/A Snow Light Snow
8:55 PM 33.8 °F 27.7 °F 32.0 °F 93% 29.50 in 7.0 mi ENE 6.9 mph - N/A Snow Light Snow
9:15 PM 33.8 °F 24.3 °F 32.0 °F 93% 29.49 in 10.0 mi East 13.8 mph 18.4 mph N/A   Mostly Cloudy
9:35 PM 33.8 °F 27.0 °F 32.0 °F 93% 29.50 in 10.0 mi ENE 8.1 mph 16.1 mph N/A   Overcast
9:55 PM 33.8 °F 27.0 °F 32.0 °F 93% 29.50 in 10.0 mi NNE 8.1 mph - N/A   Overcast
10:15 PM 33.8 °F 25.3 °F 32.0 °F 93% 29.49 in 5.0 mi ENE 11.5 mph 18.4 mph N/A   Overcast
10:35 PM 32.0 °F 22.5 °F 32.0 °F 100% 29.50 in 3.0 mi NE 12.7 mph 17.3 mph N/A   Overcast
10:55 PM 32.0 °F 24.2 °F 32.0 °F 100% 29.50 in 2.5 mi ENE 9.2 mph - N/A   Overcast
11:15 PM 32.0 °F 25.6 °F 32.0 °F 100% 29.51 in 3.0 mi NNE 6.9 mph 17.3 mph N/A Snow Light Snow
11:35 PM 32.0 °F 22.5 °F 30.2 °F 93% 29.52 in 1.5 mi NNE 12.7 mph 18.4 mph N/A Snow Light Snow
11:55 PM 32.0 °F 23.0 °F 30.2 °F 93% 29.52 in 1.2 mi NE 11.5 mph 19.6 mph N/A Snow Light Snow